Regional Weather Roundup
Issued by NWS Portland, ME

Home | Current Version | Previous Version | Text Only | Print | Product List | Glossary On
Versions: 1 2 3 4 5 6 7 8 9 10 11 12 13 14 15 16 17 18 19 20 21 22 23 24 25 26 27 28 29 30 31 32 33 34 35 36 37 38 39 40 41 42 43 44 45 46 47 48 49 50
000
ASUS41 KGYX 010510
RWRGYX
WEATHER ROUNDUP FOR MAINE AND NEW HAMPSHIRE
NATIONAL WEATHER SERVICE GRAY ME
1200 AM EST SUN FEB 01 2015

MEZ002-005-006-010-012-015-018-020-021-024-026-027-029-010600-
MAINE

CITY           SKY/WX    TMP DP  RH WIND       PRES   REMARKS
PORTLAND       CLEAR     11  -7  44 NW7       29.94S
SANFORD        CLEAR      9 -11  40 W10G17    29.92S WCI  -6
BAR HARBOR     CLEAR      3   0  85 W9G17     29.81S
WISCASSET      CLEAR      8  -8  48 W7        29.91F
ROCKLAND       CLEAR      5  -8  56 NW5       29.86S
FRYEBURG       PTCLDY    -8 -13  78 CALM      29.91F
LEWISTONAUBURN CLEAR      7  -9  47 NW6       29.89F
AUGUSTA        PTCLDY     5  -9  52 NW8       29.88S
WATERVILLE     PTCLDY     7 -11  43 NW7       29.84S
BANGOR         CLEAR      4  -8  57 NW16G23   29.85S WCI -15
GREENVILLE       N/A     -3 -10  72 NW21G30   29.73R WCI -26
MILLINOCKET    CLEAR      2  -9  60 NW13G30   29.82S WCI -15
HOULTON        PTCLDY     5  -5  63 NW14G22   29.72R WCI -12
PRESQUE ISLE   MOCLDY     7  -8  51 NW12G17   29.74R WCI  -9
FRENCHVILLE    PTCLDY     1 -11  57 NW23G33   29.67F WCI -22
CARIBOU        MOCLDY     3  -8  60 NW15G23   29.71S WCI -16
$$

NHZ002-005-008-009-011-012-014-010600-
NEW HAMPSHIRE

CITY           SKY/WX    TMP DP  RH WIND       PRES   REMARKS
PORTSMOUTH     CLEAR     11 -11  35 W12G23    29.96R WCI  -3
ROCHESTER      CLEAR     10 -12  36 W8        29.93S
NASHUA         CLEAR     13 -10  35 NW9       30.04R
MANCHESTER     CLEAR     11  -9  40 NW8       30.00S
CONCORD        CLEAR      9 -10  42 NW12      30.00F WCI  -6
LACONIA        CLEAR      7 -11  43 SW12      29.94F WCI  -9
PLYMOUTH       FAIR       7  -5  57 W23G33    29.98S WCI -15
BERLIN         PTCLDY    -1 -13  56 VRB5      29.96S
WHITEFIELD     PTCLDY   -20 -25  77 CALM      30.02S
JAFFREY        PTCLDY    10 -10  40 NW13G23   29.97R WCI  -5
KEENE          PTCLDY     3  -8  60 CALM      30.05R
LEBANON        MOCLDY    -4 -12  68 CALM      30.07R
MT WASHINGTON  CLOUDY   -11 -20  64 NW72G83     N/A  VSB 1   WCI -52
$$

VTZ005-007-008-010600-
VERMONT

CITY           SKY/WX    TMP DP  RH WIND       PRES   REMARKS
ST JOHNSBURY     N/A    -10 -15  78 MISG      30.07S
MONTPELIER     MOCLDY     1 -10  60 NW5       30.06S
BURLINGTON     FLURRIES   1  -8  66 CALM      30.12F
$$

MAZ007-012-024-CTZ003-RIZ002-NYZ038-NYZ072-010600-
SOUTHERN NEW ENGLAND AND NY

CITY           SKY/WX    TMP DP  RH WIND       PRES   REMARKS
BOSTON         CLEAR     14  -6  40 W12G20    30.04R WCI   0
WORCESTER      CLEAR    N/A N/A N/A W9        30.00R
NANTUCKET      FAIR      20   2  45 NW24G31   30.01R WCI   3
PROVIDENCE     CLEAR     13  -5  44 W10       30.09R WCI   0
HARTFORD       PTCLDY    16   2  54 NW13      30.11S WCI   2
ALBANY         FLURRIES  10   3  73 CALM      30.17F
NEW YORK CITY  CLEAR     21   7  54 NW9       30.21S
$$

ANZ081-ANZ082-ANZ150-NHZ014-MEZ023>029-010600-
COASTAL MARINE OBSERVATIONS

STATION/POSITION TIME  TEMP    WIND        PRES    WAVE
                       AIR SEA DIR/SP/G            HT/PER
                 (UTC) (F)     (DEG/KT/KT) (MB)    (FT/S)
MOUNT DESERT ROC 0500   15                 1007.9R
MATINICUS ROCK   0500          310/ 30/ 32 1010.6R
PORTLAND WX BUOY 0450   14 39  310/ 14/ 19 1013.7R   2/ 9
WELLS            0400   12 34  320/ 10/ 15 1013.5R
ISLE OF SHOALS   0500   14     290/ 25/ 29 1013.4R
JEFFREYS LEDGE   0421      44                N/A     8/ 6
CASHES LEDGE BUO 0450   21 44  310/ 27/ 33 1011.4R  12/ 8
$$

.............KEY..............
   WCI - WIND CHILL
   TC  - TEMPERATURE IN CELSIUS
   VSB - VISIBILITY IN MILES
   HX  - HEAT INDEX
   FAIR- INDICATES FEW OR NO CLOUDS BELOW 12,000 FT, WITH NO
         SIGNIFICANT WEATHER AND/OR OBSTRUCTIONS TO VISIBILITY.




USA.gov is the U.S. government's official web portal to all federal, state and local government web resources and services.